Hourly Data Report for October 08, 2017

All times are specified in Local Standard Time (LST). Add 1 hour to adjust for Daylight Saving Time where and when it is observed.

SATURNA ISLAND CS
BRITISH COLUMBIA

48°47'02.067" N
123°02'41.082" W
24.40 m
1017101
71473
WEZ

Download Data

Hourly Data (October 2017)
Hourly Data Report for October 8, 2017
Temp Definition
°C
Dew Point Temp Definition
°C
Rel Hum Definition
%
Wind Dir Definition
10's deg

Wind Spd Definition
km/h
Visibility Definition
km
Stn Press Definition
kPa
Hmdx Definition


Wind Chill Definition


Weather Definition


TIME
00:00 10.1 7.6 84 24 10   101.36     LegendNANA
01:00 9.8 7.0 83 25 6   101.42     LegendNANA
02:00 10.0 6.7 80 25 5   101.50     LegendNANA
03:00 9.4 6.3 81 25 3   101.54     LegendNANA
04:00 9.7 7.2 84 29 4   101.61     LegendNANA
05:00 11.1 8.4 83 32 8   101.68     LegendNANA
06:00 10.6 8.3 86 33 8   101.80     LegendNANA
07:00 9.9 8.3 90 33 7   101.96     LegendNANA
08:00 10.3 8.8 90 33 7   102.06     LegendNANA
09:00 10.9 8.9 87 36 11   102.15     LegendNANA
10:00 12.3 9.1 81 1 15   102.21     LegendNANA
11:00 12.9 8.7 75 2 10   102.26     LegendNANA
12:00 12.6 7.6 71 35 7   102.29     LegendNANA
13:00 12.8 8.0 72 32 8   102.30     LegendNANA
14:00 12.6 7.9 73 33 7   102.25     LegendNANA
15:00 14.0 7.8 66 30 5   102.31     LegendNANA
16:00 11.6 7.6 76 30 4   102.32     LegendNANA
17:00 11.1 7.2 77 33 6   102.30     LegendNANA
18:00 10.6 5.7 72 28 5   102.34     LegendNANA
19:00 10.9 5.3 68 27 5   102.35     LegendNANA
20:00 10.6 7.0 79 22 9   102.37     LegendNANA
21:00 10.0 7.4 84 18 10   102.39     LegendNANA
22:00 9.5 7.4 87 19 4   102.42     LegendNANA
23:00 10.2 7.7 85 14 6   102.40     LegendNANA

Notes on Data Quality.

Legend

  • E = Estimated
  • M = Missing
  • NA = Not Available
  • ‡ = Partner data that is not subject to review by the National Climate Archives
Date modified: